| time (UTC) | temp C | wind direction | speed KPH | gust KPH | rain 1hr cm | rain 24hr cm | rain mn cm | humidity % | barometer mb |
| 20260507235052 | 16 | 28 | 0.0 | 1.6 | 0.00 | 0.46 | 0.00 | 76 | 1009.8 |
| 20260507234027 | 16 | 0.0 | 0.0 | 0.00 | 0.46 | 0.00 | 75 | 1009.9 | |
| 20260507233023 | 16 | 18 | 0.0 | 1.6 | 0.00 | 0.46 | 0.00 | 75 | 1009.9 |
| 20260507232016 | 15 | 6 | 0.0 | 1.6 | 0.00 | 0.46 | 0.00 | 77 | 1010.1 |
| 20260507231031 | 15 | 0.0 | 0.0 | 0.00 | 0.46 | 0.00 | 78 | 1010.1 | |
| 20260507230029 | 16 | 0.0 | 0.0 | 0.00 | 0.46 | 0.00 | 77 | 1010.4 | |
| 20260507225040 | 15 | 41 | 0.0 | 1.6 | 0.00 | 0.46 | 0.00 | 77 | 1010.5 |
| 20260507224035 | 16 | 0.0 | 0.0 | 0.00 | 0.46 | 0.00 | 75 | 1010.5 | |
| 20260507223030 | 15 | 27 | 0.0 | 1.6 | 0.00 | 0.46 | 0.00 | 77 | 1010.5 |
| 20260507222023 | 15 | 0.0 | 0.0 | 0.00 | 0.46 | 0.00 | 78 | 1010.7 | |
| 20260507221016 | 16 | 0.0 | 0.0 | 0.00 | 0.46 | 0.00 | 78 | 1010.6 | |
| 20260507220031 | 15 | 30 | 0.0 | 1.6 | 0.00 | 0.46 | 0.46 | 77 | 1010.6 |
| 20260507215026 | 16 | 0.0 | 0.0 | 0.00 | 0.46 | 0.46 | 75 | 1010.8 | |
| 20260507214020 | 15 | 0.0 | 0.0 | 0.00 | 0.46 | 0.46 | 76 | 1010.8 | |
| 20260507213016 | 15 | 0.0 | 0.0 | 0.00 | 0.46 | 0.46 | 76 | 1010.9 | |
| 20260507212032 | 15 | 39 | 0.0 | 1.6 | 0.00 | 0.46 | 0.46 | 74 | 1010.9 |
| 20260507211108 | 15 | 29 | 0.0 | 1.6 | 0.00 | 0.46 | 0.46 | 76 | 1010.8 |
| 20260507210022 | 15 | 0.0 | 0.0 | 0.00 | 0.46 | 0.46 | 75 | 1011.0 | |
| 20260507205017 | 16 | 0.0 | 0.0 | 0.00 | 0.46 | 0.46 | 75 | 1011.0 | |
| 20260507204032 | 16 | 25 | 0.0 | 1.6 | 0.00 | 0.46 | 0.46 | 75 | 1011.1 |
| 20260507203028 | 16 | 0.0 | 0.0 | 0.00 | 0.46 | 0.46 | 73 | 1011.0 | |
| 20260507202023 | 16 | 162 | 0.0 | 1.6 | 0.00 | 0.46 | 0.46 | 69 | 1011.1 |
| 20260507201039 | 17 | 0.0 | 0.0 | 0.00 | 0.46 | 0.46 | 65 | 1011.2 | |
| 20260507200034 | 17 | 258 | 0.0 | 1.6 | 0.00 | 0.46 | 0.46 | 63 | 1011.2 |
| 20260507195030 | 17 | 16 | 1.6 | 3.2 | 0.00 | 0.46 | 0.46 | 61 | 1011.3 |
| 20260507194024 | 17 | 351 | 1.6 | 3.2 | 0.00 | 0.46 | 0.46 | 63 | 1011.2 |
| 20260507193019 | 17 | 347 | 1.6 | 3.2 | 0.00 | 0.46 | 0.46 | 61 | 1011.1 |
| 20260507192033 | 17 | 353 | 3.2 | 4.8 | 0.00 | 0.46 | 0.46 | 63 | 1011.1 |
| 20260507191109 | 17 | 359 | 1.6 | 4.8 | 0.00 | 0.46 | 0.46 | 63 | 1011.0 |
| 20260507190024 | 18 | 349 | 1.6 | 4.8 | 0.00 | 0.46 | 0.46 | 63 | 1011.1 |
| 20260507185039 | 18 | 2 | 3.2 | 6.4 | 0.00 | 0.46 | 0.46 | 62 | 1011.1 |
| 20260507184033 | 18 | 9 | 3.2 | 4.8 | 0.00 | 0.46 | 0.46 | 63 | 1011.1 |
| 20260507183027 | 18 | 9 | 3.2 | 4.8 | 0.00 | 0.46 | 0.46 | 63 | 1011.0 |
| 20260507182022 | 18 | 354 | 3.2 | 6.4 | 0.00 | 0.46 | 0.46 | 64 | 1011.0 |
| 20260507181016 | 18 | 19 | 3.2 | 4.8 | 0.00 | 0.46 | 0.46 | 63 | 1011.0 |
| 20260507180031 | 18 | 16 | 3.2 | 9.7 | 0.00 | 0.46 | 0.46 | 61 | 1011.1 |
| 20260507175027 | 19 | 22 | 3.2 | 9.7 | 0.00 | 0.46 | 0.46 | 60 | 1011.2 |
| 20260507174021 | 19 | 17 | 0.0 | 3.2 | 0.00 | 0.51 | 0.46 | 61 | 1011.2 |
| 20260507173016 | 19 | 6 | 1.6 | 3.2 | 0.00 | 0.51 | 0.46 | 59 | 1011.2 |
| 20260507172032 | 20 | 7 | 1.6 | 4.8 | 0.00 | 0.51 | 0.46 | 58 | 1011.1 |
| 20260507171026 | 20 | 3 | 1.6 | 4.8 | 0.00 | 0.51 | 0.46 | 58 | 1011.1 |
| 20260507170020 | 20 | 356 | 1.6 | 4.8 | 0.00 | 0.51 | 0.46 | 59 | 1011.1 |
| 20260507165036 | 20 | 353 | 1.6 | 4.8 | 0.00 | 0.51 | 0.46 | 59 | 1011.2 |
| 20260507164029 | 20 | 20 | 1.6 | 4.8 | 0.00 | 0.51 | 0.46 | 60 | 1011.1 |
| 20260507163024 | 20 | 182 | 1.6 | 4.8 | 0.00 | 0.51 | 0.46 | 61 | 1011.0 |
| 20260507162039 | 21 | 333 | 1.6 | 3.2 | 0.00 | 0.51 | 0.46 | 61 | 1011.0 |
| 20260507161033 | 21 | 346 | 3.2 | 4.8 | 0.00 | 0.51 | 0.46 | 60 | 1011.0 |
| 20260507160027 | 21 | 10 | 1.6 | 9.7 | 0.00 | 0.51 | 0.46 | 60 | 1011.0 |
| 20260507155123 | 21 | 331 | 1.6 | 3.2 | 0.00 | 0.51 | 0.46 | 61 | 1011.0 |
| 20260507154017 | 21 | 358 | 1.6 | 4.8 | 0.00 | 0.51 | 0.46 | 62 | 1011.1 |
| 20260507153032 | 21 | 8 | 1.6 | 6.4 | 0.00 | 0.51 | 0.46 | 61 | 1011.0 |
| 20260507152028 | 21 | 322 | 1.6 | 4.8 | 0.00 | 0.51 | 0.46 | 62 | 1011.1 |
| 20260507151021 | 21 | 356 | 1.6 | 4.8 | 0.00 | 0.51 | 0.46 | 62 | 1011.1 |
| 20260507150036 | 21 | 303 | 1.6 | 3.2 | 0.00 | 0.51 | 0.46 | 63 | 1011.1 |
| 20260507145031 | 22 | 7 | 1.6 | 4.8 | 0.00 | 0.51 | 0.46 | 60 | 1011.1 |
| 20260507144026 | 22 | 319 | 3.2 | 6.4 | 0.00 | 0.51 | 0.46 | 60 | 1011.2 |
| 20260507143020 | 22 | 293 | 1.6 | 6.4 | 0.00 | 0.51 | 0.46 | 61 | 1011.2 |
| 20260507142055 | 22 | 262 | 1.6 | 3.2 | 0.00 | 0.51 | 0.46 | 63 | 1011.6 |
| 20260507141029 | 22 | 232 | 0.0 | 3.2 | 0.00 | 0.51 | 0.46 | 66 | 1011.6 |
| 20260507140024 | 21 | 213 | 3.2 | 6.4 | 0.00 | 0.51 | 0.46 | 66 | 1011.9 |
| 20260507135018 | 21 | 236 | 1.6 | 4.8 | 0.00 | 0.51 | 0.46 | 66 | 1012.1 |
| 20260507134033 | 20 | 226 | 3.2 | 6.4 | 0.00 | 0.51 | 0.46 | 67 | 1012.2 |
| 20260507133029 | 21 | 243 | 1.6 | 4.8 | 0.00 | 0.51 | 0.46 | 62 | 1012.2 |
| 20260507132024 | 21 | 204 | 1.6 | 6.4 | 0.00 | 0.51 | 0.46 | 57 | 1012.2 |
| 20260507131019 | 22 | 189 | 3.2 | 6.4 | 0.00 | 0.51 | 0.46 | 58 | 1012.3 |
| 20260507130033 | 21 | 209 | 3.2 | 6.4 | 0.00 | 0.51 | 0.46 | 59 | 1012.3 |
| 20260507125028 | 21 | 197 | 3.2 | 6.4 | 0.00 | 0.51 | 0.46 | 56 | 1012.3 |
| 20260507124103 | 22 | 182 | 1.6 | 4.8 | 0.00 | 0.51 | 0.46 | 55 | 1012.5 |
| 20260507123018 | 22 | 193 | 1.6 | 3.2 | 0.00 | 0.51 | 0.46 | 56 | 1012.7 |
| 20260507122032 | 22 | 213 | 1.6 | 4.8 | 0.00 | 0.51 | 0.46 | 57 | 1012.7 |
| 20260507121048 | 22 | 271 | 1.6 | 3.2 | 0.00 | 0.51 | 0.46 | 64 | 1012.6 |
| 20260507120025 | 21 | 303 | 1.6 | 1.6 | 0.00 | 0.51 | 0.46 | 67 | 1012.7 |
| 20260507115035 | 21 | 237 | 1.6 | 4.8 | 0.00 | 0.51 | 0.46 | 69 | 1012.7 |
| 20260507114131 | 21 | 16 | 1.6 | 6.4 | 0.00 | 0.51 | 0.46 | 69 | 1012.8 |
| 20260507113023 | 21 | 212 | 1.6 | 3.2 | 0.00 | 0.51 | 0.46 | 71 | 1012.8 |
| 20260507112018 | 20 | 258 | 1.6 | 4.8 | 0.00 | 0.51 | 0.46 | 72 | 1012.8 |
| 20260507111034 | 20 | 268 | 1.6 | 4.8 | 0.00 | 0.51 | 0.46 | 72 | 1013.0 |
| 20260507110027 | 20 | 1 | 3.2 | 9.7 | 0.00 | 0.51 | 0.46 | 73 | 1013.0 |
| 20260507105022 | 20 | 259 | 0.0 | 1.6 | 0.00 | 0.51 | 0.46 | 70 | 1013.1 |
| 20260507104037 | 20 | 338 | 1.6 | 4.8 | 0.00 | 0.51 | 0.46 | 72 | 1013.2 |
| 20260507103030 | 20 | 320 | 1.6 | 3.2 | 0.00 | 0.51 | 0.46 | 73 | 1013.3 |
| 20260507102026 | 20 | 234 | 1.6 | 6.4 | 0.00 | 0.51 | 0.46 | 72 | 1013.4 |
| 20260507101019 | 20 | 226 | 1.6 | 3.2 | 0.00 | 0.51 | 0.46 | 71 | 1013.4 |
| 20260507100033 | 20 | 226 | 1.6 | 6.4 | 0.00 | 0.51 | 0.46 | 72 | 1013.4 |
| 20260507095027 | 19 | 198 | 1.6 | 3.2 | 0.00 | 0.51 | 0.46 | 73 | 1013.3 |
| 20260507094022 | 19 | 203 | 1.6 | 3.2 | 0.00 | 0.51 | 0.46 | 73 | 1013.4 |
| 20260507093016 | 18 | 170 | 1.6 | 4.8 | 0.00 | 0.51 | 0.46 | 74 | 1013.4 |
| 20260507092032 | 18 | 190 | 1.6 | 4.8 | 0.00 | 0.53 | 0.46 | 74 | 1013.2 |
| 20260507091027 | 18 | 221 | 1.6 | 3.2 | 0.00 | 0.53 | 0.46 | 78 | 1013.2 |
| 20260507090020 | 17 | 194 | 1.6 | 3.2 | 0.00 | 0.53 | 0.46 | 79 | 1013.2 |
| 20260507085057 | 17 | 226 | 1.6 | 3.2 | 0.00 | 0.53 | 0.46 | 80 | 1013.2 |
| 20260507084030 | 17 | 182 | 1.6 | 3.2 | 0.00 | 0.53 | 0.46 | 79 | 1013.3 |
| 20260507083045 | 16 | 217 | 0.0 | 3.2 | 0.00 | 0.53 | 0.46 | 83 | 1013.4 |
| 20260507082018 | 15 | 262 | 1.6 | 3.2 | 0.00 | 0.53 | 0.46 | 85 | 1013.5 |
| 20260507081033 | 15 | 238 | 1.6 | 9.7 | 0.00 | 0.53 | 0.46 | 86 | 1013.6 |
| 20260507080027 | 15 | 319 | 0.0 | 1.6 | 0.00 | 0.53 | 0.46 | 86 | 1013.6 |
| 20260507075044 | 15 | 24 | 0.0 | 3.2 | 0.00 | 0.53 | 0.46 | 89 | 1013.5 |
| 20260507074017 | 13 | 192 | 0.0 | 1.6 | 0.00 | 0.53 | 0.46 | 95 | 1013.6 |
| 20260507073031 | 13 | 24 | 0.0 | 1.6 | 0.00 | 0.53 | 0.46 | 98 | 1013.6 |
| 20260507072027 | 12 | 355 | 1.6 | 3.2 | 0.00 | 0.53 | 0.46 | 99 | 1013.8 |
| 20260507071021 | 12 | 8 | 1.6 | 4.8 | 0.00 | 0.53 | 0.46 | 99 | 1013.8 |
| 20260507070035 | 12 | 317 | 0.0 | 1.6 | 0.00 | 0.53 | 0.46 | 99 | 1013.4 |
| 20260507065029 | 12 | 310 | 0.0 | 1.6 | 0.00 | 0.53 | 0.46 | 99 | 1013.3 |
| 20260507064024 | 12 | 192 | 0.0 | 1.6 | 0.00 | 0.53 | 0.46 | 99 | 1013.1 |
| 20260507063038 | 12 | 181 | 0.0 | 1.6 | 0.00 | 0.53 | 0.46 | 99 | 1013.1 |
| 20260507062034 | 12 | 212 | 0.0 | 1.6 | 0.00 | 0.53 | 0.46 | 99 | 1013.1 |
| 20260507061027 | 12 | 151 | 0.0 | 1.6 | 0.00 | 0.53 | 0.46 | 99 | 1013.1 |
| 20260507060021 | 12 | 0.0 | 0.0 | 0.00 | 0.56 | 0.46 | 99 | 1013.0 | |
| 20260507055035 | 12 | 0.0 | 0.0 | 0.00 | 0.58 | 0.46 | 99 | 1013.1 | |
| 20260507054030 | 12 | 0.0 | 0.0 | 0.00 | 0.58 | 0.46 | 99 | 1013.0 | |
| 20260507053024 | 12 | 0.0 | 0.0 | 0.00 | 0.58 | 0.46 | 99 | 1013.1 | |
| 20260507052020 | 12 | 0.0 | 0.0 | 0.00 | 0.61 | 0.46 | 99 | 1013.2 | |
| 20260507051054 | 12 | 0.0 | 0.0 | 0.00 | 0.61 | 0.46 | 99 | 1013.2 | |
| 20260507050028 | 11 | 7 | 0.0 | 1.6 | 0.00 | 0.61 | 0.46 | 99 | 1013.1 |
| 20260507045023 | 11 | 0 | 0.0 | 1.6 | 0.00 | 0.61 | 0.46 | 99 | 1013.0 |
| 20260507044018 | 11 | 20 | 0.0 | 3.2 | 0.00 | 0.61 | 0.46 | 99 | 1013.0 |
| 20260507043033 | 11 | 0.0 | 0.0 | 0.00 | 0.61 | 0.46 | 99 | 1012.9 | |
| 20260507042027 | 11 | 0.0 | 0.0 | 0.00 | 0.61 | 0.46 | 99 | 1013.0 | |
| 20260507041021 | 11 | 0.0 | 0.0 | 0.00 | 0.61 | 0.46 | 99 | 1013.0 | |
| 20260507040036 | 11 | 0.0 | 0.0 | 0.03 | 0.61 | 0.46 | 99 | 1013.0 | |
| 20260507035030 | 11 | 0.0 | 0.0 | 0.03 | 0.61 | 0.46 | 99 | 1012.8 | |
| 20260507034025 | 11 | 0.0 | 0.0 | 0.10 | 0.61 | 0.46 | 99 | 1012.8 | |
| 20260507033019 | 11 | 333 | 0.0 | 1.6 | 0.13 | 0.61 | 0.46 | 99 | 1012.7 |
| 20260507032054 | 11 | 0.0 | 0.0 | 0.15 | 0.61 | 0.46 | 99 | 1012.7 | |
| 20260507031027 | 11 | 0.0 | 0.0 | 0.18 | 0.61 | 0.46 | 99 | 1012.8 | |
| 20260507025017 | 11 | 0.0 | 0.0 | 0.15 | 0.58 | 0.43 | 99 | 1012.9 | |
| 20260507024030 | 11 | 0.0 | 0.0 | 0.10 | 0.51 | 0.36 | 99 | 1012.8 | |
| 20260507023026 | 11 | 0.0 | 0.0 | 0.10 | 0.48 | 0.33 | 99 | 1012.9 | |
| 20260507022021 | 11 | 0.0 | 0.0 | 0.15 | 0.46 | 0.30 | 99 | 1012.7 | |
| 20260507021034 | 11 | 0.0 | 0.0 | 0.18 | 0.43 | 0.28 | 99 | 1012.7 | |
| 20260507020029 | 11 | 0.0 | 0.0 | 0.20 | 0.46 | 0.28 | 98 | 1012.8 | |
| 20260507015025 | 11 | 0.0 | 0.0 | 0.20 | 0.46 | 0.28 | 98 | 1012.9 | |
| 20260507014018 | 11 | 0.0 | 0.0 | 0.18 | 0.43 | 0.25 | 98 | 1012.9 | |
| 20260507013033 | 11 | 176 | 0.0 | 1.6 | 0.18 | 0.41 | 0.23 | 98 | 1013.0 |
| 20260507012027 | 11 | 177 | 0.0 | 1.6 | 0.13 | 0.33 | 0.15 | 98 | 1012.9 |
| 20260507011024 | 11 | 0.0 | 0.0 | 0.08 | 0.28 | 0.10 | 97 | 1013.0 | |
| 20260507010018 | 11 | 194 | 0.0 | 1.6 | 0.08 | 0.25 | 0.08 | 97 | 1012.9 |
| 20260507005034 | 11 | 199 | 0.0 | 1.6 | 0.08 | 0.25 | 0.08 | 97 | 1013.1 |
| 20260507004028 | 11 | 185 | 0.0 | 1.6 | 0.08 | 0.25 | 0.08 | 96 | 1013.0 |
| 20260507003023 | 12 | 185 | 0.0 | 1.6 | 0.05 | 0.23 | 0.05 | 96 | 1013.2 |
| 20260507002018 | 12 | 182 | 1.6 | 1.6 | 0.03 | 0.20 | 0.03 | 95 | 1013.2 |
| 20260507001033 | 12 | 162 | 1.6 | 4.8 | 0.03 | 0.20 | 0.03 | 93 | 1013.1 |
| 20260507000027 | 12 | 180 | 0.0 | 1.6 | 0.00 | 0.18 | 0.00 | 92 | 1013.1 |